Regional Weather Roundup
Issued by NWS

Home | Current Version | Previous Version | Text Only | Print | Product List | Glossary Off
Versions: 1 2 3 4 5 6 7 8 9 10 11 12 13 14 15 16 17 18 19 20 21 22 23 24 25 26 27 28 29 30 31 32 33 34 35 36 37 38 39 40 41 42 43 44 45 46 47 48 49 50

972
ASUS43 KLMK 260602
RWRKY
KENTUCKY REGIONAL WEATHER ROUNDUP
NATIONAL WEATHER SERVICE LOUISVILLE KY
200 AM EDT SUN MAR 26 2017

NOTE "FAIR" INDICATES FEW OR NO CLOUDS BELOW 12,000 FEET
WITH NO SIGNIFICANT WEATHER AND/OR OBSTRUCTIONS TO VISIBILITY.

KYZ001>023-026-027-061>063-070>075-260700-
WESTERN AND SOUTH CENTRAL KENTUCKY

CITY           SKY/WX    TMP DP  RH WIND       PRES   REMARKS
PADUCAH        LGT RAIN  58  54  86 S6        29.90F
HENDERSON      CLOUDY    61  54  77 SE9       29.91F
OWENSBORO      LGT RAIN  59  57  93 SE9       29.94F
HOPKINSVILLE   CLOUDY    60  57  87 S10       29.94F
BOWLING GREEN  RAIN      60  57  89 S8        29.98F
GLASGOW        NOT AVBL
$$

KYZ024-025-028>034-038-045-046-053-260700-
NORTH CENTRAL KENTUCKY

CITY           SKY/WX    TMP DP  RH WIND       PRES   REMARKS
LOUISVILLE/SDF RAIN      60  56  86 S9        29.99F FOG
LOUISVILLE/LOU RAIN      60  56  86 S9        30.00F FOG
FORT KNOX      LGT RAIN  58  58 100 S9        29.97F
$$

KYZ035>037-039>044-047>052-055>060-089>105-260700-
NORTHEAST KENTUCKY

CITY           SKY/WX    TMP DP  RH WIND       PRES   REMARKS
LEXINGTON      MOCLDY    62  53  72 S3        30.02F
COVINGTON      LGT RAIN  60  56  86 S5        30.00F
FRANKFORT      CLOUDY    61  54  77 SW7       30.01S
$$

KYZ054-064>069-076>088-106>120-260700-
SOUTHEAST KENTUCKY

CITY           SKY/WX    TMP DP  RH WIND       PRES   REMARKS
JACKSON        PTCLDY    64  46  52 VRB3      30.05F
LONDON         PTCLDY    61  46  57 SE3       30.04F
SOMERSET       NOT AVBL
MIDDLESBORO    CLOUDY    58  50  75 CALM      30.07F
MONTICELLO     MOCLDY    58  54  86 W9        30.05F
$$





USA.gov is the U.S. government's official web portal to all federal, state and local government web resources and services.